User: anonymous
Location: Bridgewater
(44.3670°N, 64.5170°W)
Time: 08:18:18
(UTC-03:00)
Language:

OPAL - Orbit

View from above orbital plane
View from above orbital plane
View from above satellite
View from above satellite

Ground track
Ground track

The orbit data is extracted from the following two-line orbital elements,

1 26063U 00004C   14205.42607933  .00000003  00000-0  21196-4 0   163
2 26063 100.2173 358.3382 0037069 054.0616 306.3994 14.36380627759377
Epoch (UTC): 24 July 2014 10:13:33
Eccentricity: 0.0037069
inclination: 100.2173°
perigee height: 744 km
apogee height: 797 km
right ascension of ascending node: 358.3382°
argument of perigee: 54.0616°
revolutions per day: 14.36380627
mean anomaly at epoch: 306.3994°
orbit number at epoch: 75937

The dashed part of the orbit path shows where the satellite is in the earth's shadow,  

DLR